FW1998 Weather Reports


time (UTC)temp
C
wind
direction
speed
KPH
gust
KPH
rain 1hr
cm
rain 24hr
cm
rain mn
cm
humidity
%
barometer
mb
20190420063546 10 178 0.0 0.0 0.00 0.00 0.00 71 1027.8
20190420062954 8 191 0.0 0.0 0.00 0.00 0.00 76 1027.8
20190420061754 7 189 0.0 0.0 0.00 0.00 0.00 80 1027.8
20190420061156 7 207 0.0 0.0 0.00 0.00 0.00 83 1027.4
20190420061146 7 207 0.0 0.0 0.00 0.00 0.00 83 1027.8
20190420060554 6 205 0.0 6.4 0.00 0.00 0.00 83 1027.4
20190420055946 6 184 0.0 6.4 0.00 0.00 0.00 85 1027.8
20190420055348 6 196 0.0 0.0 0.00 0.00 0.00 88 1027.4
20190420054746 5 202 0.0 0.0 0.00 0.00 0.00 90 1027.4
20190420054154 5 188 0.0 0.0 0.00 0.00 0.00 91 1027.4
20190420052954 5 197 0.0 0.0 0.00 0.00 0.00 93 1027.4
20190420052346 5 203 0.0 0.0 0.00 0.00 0.00 95 1027.4
20190420051754 5 203 0.0 0.0 0.00 0.00 0.00 94 1027.4
20190420051146 5 203 0.0 0.0 0.00 0.00 0.00 93 1027.4
20190420050548 5 178 0.0 0.0 0.00 0.00 0.00 94 1027.4
20190420045946 5 195 0.0 0.0 0.00 0.00 0.00 94 1027.4
20190420045354 5 196 0.0 0.0 0.00 0.00 0.00 94 1027.4
20190420044154 4 163 0.0 0.0 0.00 0.00 0.00 94 1027.1
20190420043546 4 206 0.0 0.0 0.00 0.00 0.00 97 1027.1
20190420042954 5 206 0.0 0.0 0.00 0.00 0.00 97 1027.1
20190420042346 5 206 0.0 0.0 0.00 0.00 0.00 97 1027.1
20190420041748 5 206 0.0 0.0 0.00 0.00 0.00 96 1027.1
20190420041146 5 206 0.0 0.0 0.00 0.00 0.00 95 1027.1
20190420040554 5 215 0.0 0.0 0.00 0.00 0.00 94 1027.1
20190420035354 5 189 0.0 0.0 0.00 0.00 0.00 92 1027.1
20190420034746 5 191 0.0 0.0 0.00 0.00 0.00 92 1027.1
20190420034154 5 139 0.0 0.0 0.00 0.00 0.00 93 1027.1
20190420033546 5 198 0.0 0.0 0.00 0.00 0.00 96 1027.1
20190420032948 5 204 0.0 0.0 0.00 0.00 0.00 96 1027.1
20190420032346 5 205 0.0 0.0 0.00 0.00 0.00 95 1027.1
20190420031754 5 204 0.0 0.0 0.00 0.00 0.00 95 1027.1
20190420030554 5 215 0.0 0.0 0.00 0.00 0.00 94 1027.1
20190420025956 5 215 0.0 0.0 0.00 0.00 0.00 94 1027.1
20190420025946 5 215 0.0 0.0 0.00 0.00 0.00 94 1027.4
20190420025354 5 215 0.0 0.0 0.00 0.00 0.00 93 1027.1
20190420024746 5 215 0.0 0.0 0.00 0.00 0.00 93 1027.1
20190420024148 6 224 0.0 0.0 0.00 0.00 0.00 91 1027.4
20190420023546 6 209 0.0 0.0 0.00 0.00 0.00 91 1027.1
20190420022954 6 230 0.0 0.0 0.00 0.00 0.00 90 1027.1
20190420021754 6 212 0.0 0.0 0.00 0.00 0.00 90 1027.1
20190420021146 6 213 0.0 0.0 0.00 0.00 0.00 89 1027.1
20190420020554 6 234 0.0 0.0 0.00 0.00 0.00 88 1027.1
20190420015946 6 198 0.0 0.0 0.00 0.00 0.00 87 1027.4
20190420015348 7 198 0.0 0.0 0.00 0.00 0.00 87 1027.4
20190420014746 7 216 0.0 0.0 0.00 0.00 0.00 86 1027.4
20190420014154 7 191 0.0 6.4 0.00 0.00 0.00 85 1027.1
20190420012954 7 214 0.0 0.0 0.00 0.00 0.00 84 1027.1
20190420012346 7 220 0.0 0.0 0.00 0.00 0.00 84 1027.1
20190420011753 7 202 0.0 0.0 0.00 0.00 0.00 83 1027.1
20190420011146 7 191 0.0 0.0 0.00 0.00 0.00 82 1027.1
20190420010548 7 203 0.0 0.0 0.00 0.00 0.00 83 1027.1
20190420005945 7 260 0.0 6.4 0.00 0.00 0.00 82 1027.1
20190420005354 7 128 0.0 6.4 0.00 0.00 0.00 81 1027.1
20190420004154 7 186 0.0 0.0 0.00 0.00 0.00 83 1027.1
20190420003546 8 201 0.0 0.0 0.00 0.00 0.00 81 1027.1
20190420002954 8 211 0.0 0.0 0.00 0.00 0.00 80 1027.4
20190420002346 8 141 0.0 0.0 0.00 0.00 0.00 80 1027.1
20190420001748 8 206 0.0 0.0 0.00 0.00 0.00 81 1027.1
20190420001145 8 206 0.0 0.0 0.00 0.00 0.00 81 1027.1
20190420000554 8 225 0.0 0.0 0.00 0.00 0.00 79 1027.4
20190419235353 8 200 0.0 0.0 0.00 0.00 0.00 76 1027.1
20190419234746 8 200 0.0 6.4 0.00 0.00 0.00 77 1027.1
20190419234154 9 170 0.0 0.0 0.00 0.00 0.00 77 1027.4
20190419233546 9 164 0.0 6.4 0.00 0.00 0.00 77 1027.4
20190419232948 9 118 1.6 6.4 0.00 0.00 0.00 77 1027.1
20190419232346 9 119 1.6 12.9 0.00 0.00 0.00 77 1027.4
20190419231753 9 192 3.2 12.9 0.00 0.00 0.00 76 1027.4
20190419230553 10 226 0.0 6.4 0.00 0.00 0.00 76 1027.4
20190419225946 10 197 0.0 0.0 0.00 0.00 0.00 76 1027.1
20190419225354 10 181 0.0 0.0 0.00 0.00 0.00 76 1027.1
20190419224745 10 217 0.0 0.0 0.00 0.00 0.00 75 1027.1
20190419224148 10 151 0.0 6.4 0.00 0.00 0.00 74 1027.1
20190419223545 10 191 0.0 0.0 0.00 0.00 0.00 74 1027.1
20190419222953 10 192 0.0 0.0 0.00 0.00 0.00 77 1027.1
20190419221753 10 192 0.0 6.4 0.00 0.00 0.00 75 1027.1
20190419221145 10 220 0.0 6.4 0.00 0.00 0.00 73 1027.1
20190419220553 10 189 0.0 6.4 0.00 0.00 0.00 71 1027.1
20190419215945 10 199 0.0 0.0 0.00 0.00 0.00 70 1027.1
20190419215348 10 199 0.0 0.0 0.00 0.00 0.00 70 1027.1
20190419214745 10 212 0.0 0.0 0.00 0.00 0.00 69 1027.1
20190419214153 10 201 0.0 0.0 0.00 0.00 0.00 70 1027.1
20190419212953 11 219 0.0 0.0 0.00 0.00 0.00 73 1027.1
20190419212345 11 219 0.0 0.0 0.00 0.00 0.00 72 1027.1
20190419211753 12 201 0.0 0.0 0.00 0.00 0.00 70 1027.1
20190419211145 12 197 0.0 0.0 0.00 0.00 0.00 69 1027.1
20190419210548 12 194 0.0 0.0 0.00 0.00 0.00 66 1027.1
20190419205945 13 212 0.0 0.0 0.00 0.00 0.00 63 1026.8
20190419205353 13 203 0.0 0.0 0.00 0.00 0.00 60 1027.1
20190419204153 13 224 0.0 0.0 0.00 0.00 0.00 57 1027.1
20190419203556 13 225 0.0 0.0 0.00 0.00 0.00 57 1026.8
20190419203545 13 225 0.0 0.0 0.00 0.00 0.00 57 1027.1
20190419202953 13 228 0.0 0.0 0.00 0.00 0.00 57 1026.8
20190419202345 13 227 0.0 0.0 0.00 0.00 0.00 57 1027.1
20190419201748 13 228 0.0 0.0 0.00 0.00 0.00 57 1026.8
20190419201145 13 228 0.0 0.0 0.00 0.00 0.00 56 1027.1
20190419200553 13 227 0.0 0.0 0.00 0.00 0.00 57 1027.1
20190419195353 14 227 0.0 0.0 0.00 0.00 0.00 58 1026.8
20190419194745 14 228 0.0 0.0 0.00 0.00 0.00 58 1026.8
20190419194153 15 228 0.0 0.0 0.00 0.00 0.00 56 1026.8
20190419193545 15 228 0.0 0.0 0.00 0.00 0.00 54 1027.1
20190419192948 15 228 0.0 0.0 0.00 0.00 0.00 55 1026.8
20190419192345 15 228 0.0 0.0 0.00 0.00 0.00 55 1026.8
20190419191753 15 236 0.0 0.0 0.00 0.00 0.00 52 1026.8
20190419190553 16 236 0.0 0.0 0.00 0.00 0.00 50 1026.8
20190419185945 16 236 0.0 0.0 0.00 0.00 0.00 49 1026.8
20190419185353 16 236 0.0 0.0 0.00 0.00 0.00 49 1026.4
20190419184745 16 236 0.0 0.0 0.00 0.00 0.00 49 1026.4
20190419184148 17 236 0.0 0.0 0.00 0.00 0.00 49 1026.4
20190419183545 17 236 0.0 0.0 0.00 0.00 0.00 49 1026.4
20190419182953 18 236 0.0 0.0 0.00 0.00 0.00 48 1026.4
20190419181753 19 258 0.0 0.0 0.00 0.00 0.00 45 1026.1
20190419181145 20 197 0.0 0.0 0.00 0.00 0.00 45 1026.1
20190419180553 20 197 0.0 0.0 0.00 0.00 0.00 40 1026.1
20190419175945 21 197 0.0 0.0 0.00 0.00 0.00 39 1026.1
20190419175348 21 197 0.0 0.0 0.00 0.00 0.00 39 1026.1
20190419174745 21 197 0.0 0.0 0.00 0.00 0.00 38 1025.7
20190419174153 22 195 0.0 0.0 0.00 0.00 0.00 38 1025.7
20190419172953 22 195 0.0 0.0 0.00 0.00 0.00 35 1025.7
20190419172345 23 215 0.0 0.0 0.00 0.00 0.00 34 1025.7
20190419171753 23 142 0.0 0.0 0.00 0.00 0.00 33 1025.7
20190419171145 23 183 0.0 6.4 0.00 0.00 0.00 33 1025.7
20190419170548 23 138 0.0 6.4 0.00 0.00 0.00 32 1025.7
20190419165945 24 217 3.2 6.4 0.00 0.00 0.00 31 1025.7
20190419165353 24 143 1.6 6.4 0.00 0.00 0.00 32 1025.7
20190419164153 25 181 0.0 12.9 0.00 0.00 0.00 31 1025.7
20190419163556 25 229 1.6 6.4 0.00 0.00 0.00 30 1025.4
20190419163545 25 229 1.6 6.4 0.00 0.00 0.00 30 1025.7
20190419162953 25 127 1.6 12.9 0.00 0.00 0.00 31 1025.7
20190419162345 25 195 3.2 19.3 0.00 0.00 0.00 32 1025.4
20190419161748 25 185 1.6 19.3 0.00 0.00 0.00 30 1025.7
20190419161145 25 200 0.0 0.0 0.00 0.00 0.00 31 1025.4
20190419160553 25 164 3.2 12.9 0.00 0.00 0.00 31 1025.4
20190419155353 25 246 3.2 12.9 0.00 0.00 0.00 34 1025.7
20190419154745 26 111 4.8 19.3 0.00 0.00 0.00 31 1025.4
20190419154153 26 113 1.6 6.4 0.00 0.00 0.00 30 1025.7
20190419153545 26 238 1.6 12.9 0.00 0.00 0.00 30 1025.4
20190419152948 26 208 1.6 12.9 0.00 0.00 0.00 32 1025.4
20190419152345 26 150 3.2 12.9 0.00 0.00 0.00 32 1025.4
20190419151753 26 94 0.0 6.4 0.00 0.00 0.00 31 1025.4
20190419150553 26 232 3.2 12.9 0.00 0.00 0.00 32 1025.4
20190419145945 26 121 3.2 12.9 0.00 0.00 0.00 31 1025.4
20190419145353 26 206 1.6 12.9 0.00 0.00 0.00 31 1025.4
20190419144745 26 180 1.6 6.4 0.00 0.00 0.00 32 1025.7
20190419144148 25 144 3.2 12.9 0.00 0.00 0.00 31 1025.4
20190419143552 25 151 3.2 12.9 0.00 0.00 0.00 32 1025.4
20190419142953 25 150 3.2 19.3 0.00 0.00 0.00 33 1025.7
20190419141753 25 225 1.6 12.9 0.00 0.00 0.00 29 1025.4
20190419141145 25 97 4.8 12.9 0.00 0.00 0.00 32 1025.7
20190419140553 25 110 1.6 12.9 0.00 0.00 0.00 32 1025.7
20190419135945 25 216 1.6 12.9 0.00 0.00 0.00 30 1025.7
20190419135348 25 232 0.0 6.4 0.00 0.00 0.00 33 1025.7
20190419134745 25 84 6.4 19.3 0.00 0.00 0.00 32 1026.1
20190419134153 25 78 4.8 19.3 0.00 0.00 0.00 33 1025.7
20190419132953 25 225 1.6 6.4 0.00 0.00 0.00 30 1025.7
20190419132356 25 177 4.8 12.9 0.00 0.00 0.00 30 1025.7
20190419132345 25 177 4.8 12.9 0.00 0.00 0.00 30 1026.1
20190419131753 25 134 3.2 12.9 0.00 0.00 0.00 30 1025.7
20190419131145 25 237 0.0 6.4 0.00 0.00 0.00 28 1026.1
20190419130548 25 206 4.8 19.3 0.00 0.00 0.00 29 1026.1
20190419125945 25 34 0.0 6.4 0.00 0.00 0.00 31 1026.1
20190419125353 25 194 1.6 12.9 0.00 0.00 0.00 32 1026.1
20190419124153 25 174 3.2 19.3 0.00 0.00 0.00 35 1026.1
20190419123545 25 84 4.8 19.3 0.00 0.00 0.00 34 1026.4
20190419122953 25 106 1.6 12.9 0.00 0.00 0.00 35 1026.1
20190419122345 25 268 3.2 12.9 0.00 0.00 0.00 37 1026.4
20190419121748 24 127 4.8 12.9 0.00 0.00 0.00 35 1026.4
20190419121145 24 164 3.2 12.9 0.00 0.00 0.00 36 1026.4
20190419120553 24 151 1.6 12.9 0.00 0.00 0.00 37 1026.4
20190419115353 23 113 1.6 12.9 0.00 0.00 0.00 38 1026.4
20190419114756 23 106 4.8 19.3 0.00 0.00 0.00 38 1026.4
20190419114745 23 106 3.2 19.3 0.00 0.00 0.00 38 1026.4
20190419114153 23 169 6.4 19.3 0.00 0.00 0.00 40 1026.4
20190419113545 23 128 1.6 12.9 0.00 0.00 0.00 40 1026.4
20190419112948 23 197 3.2 19.3 0.00 0.00 0.00 41 1026.4
20190419112345 23 237 0.0 12.9 0.00 0.00 0.00 41 1026.4
20190419111753 23 147 3.2 19.3 0.00 0.00 0.00 42 1026.4
20190419110553 23 210 1.6 12.9 0.00 0.00 0.00 45 1026.4
20190419105945 23 89 4.8 12.9 0.00 0.00 0.00 43 1026.4
20190419105353 23 154 3.2 12.9 0.00 0.00 0.00 44 1026.8
20190419104745 23 136 3.2 12.9 0.00 0.00 0.00 44 1026.8
20190419104148 23 205 3.2 19.3 0.00 0.00 0.00 42 1026.8
20190419103545 23 185 1.6 12.9 0.00 0.00 0.00 43 1026.4
20190419101753 22 234 0.0 6.4 0.00 0.00 0.00 43 1026.8
20190419101145 22 243 1.6 6.4 0.00 0.00 0.00 46 1026.8
20190419100553 22 230 3.2 12.9 0.00 0.00 0.00 48 1026.8
20190419095945 22 80 4.8 19.3 0.00 0.00 0.00 46 1026.8
20190419095353 22 107 3.2 12.9 0.00 0.00 0.00 45 1026.8
20190419094745 21 170 1.6 12.9 0.00 0.00 0.00 44 1026.8
20190419094153 21 217 1.6 12.9 0.00 0.00 0.00 47 1026.8
20190419093545 21 109 1.6 12.9 0.00 0.00 0.00 46 1026.8
20190419092953 20 131 3.2 12.9 0.00 0.00 0.00 48 1026.8
20190419092345 20 249 4.8 19.3 0.00 0.00 0.00 50 1027.1
20190419091753 20 76 4.8 12.9 0.00 0.00 0.00 50 1027.1
20190419091145 20 160 1.6 12.9 0.00 0.00 0.00 49 1026.8
20190419090549 19 181 4.8 12.9 0.00 0.00 0.00 50 1026.8
20190419085945 19 90 3.2 12.9 0.00 0.00 0.00 51 -338.6
20190419085353 19 186 3.2 12.9 0.00 0.00 0.00 52 1027.1
20190419084746 18 169 1.6 12.9 0.00 0.00 0.00 51 1027.1
20190419084153 18 84 4.8 12.9 0.00 0.00 0.00 52 1027.1
20190419083545 18 94 3.2 12.9 0.00 0.00 0.00 53 1026.8
20190419082953 18 65 4.8 19.3 0.00 0.00 0.00 54 1026.8
20190419082345 18 189 1.6 12.9 0.00 0.00 0.00 54 1026.8
20190419081753 17 84 3.2 12.9 0.00 0.00 0.00 54 -338.6
20190419081145 17 113 4.8 19.3 0.00 0.00 0.00 55 -338.6
20190419080553 17 102 3.2 12.9 0.00 0.00 0.00 55 -338.6
20190419075945 17 182 3.2 12.9 0.00 0.00 0.00 56 -338.6
20190419075353 16 174 1.6 12.9 0.00 0.00 0.00 55 -338.6
20190419074745 16 93 1.6 12.9 0.00 0.00 0.00 56 -338.6
20190419074153 15 135 1.6 12.9 0.00 0.00 0.00 58 1026.4
20190419073547 15 90 1.6 6.4 0.00 0.00 0.00 59 1026.4
20190419072948 15 184 1.6 6.4 0.00 0.00 0.00 62 1026.8
20190419072345 15 86 0.0 6.4 0.00 0.00 0.00 61 1026.8
20190419070553 13 130 1.6 12.9 0.00 0.00 0.00 62 -338.6
20190419065945 13 173 1.6 6.4 0.00 0.00 0.00 64 -338.6
20190419065353 13 122 1.6 6.4 0.00 0.00 0.00 67 1026.4
20190419064745 12 100 0.0 6.4 0.00 0.00 0.00 67 1026.4
20190419064148 11 133 0.0 6.4 0.00 0.00 0.00 67 1026.4